Regional Weather Roundup
Issued by NWS Little Rock, AR

Home | Current Version | Previous Version | Graphics & Text | Print | Product List | Glossary On
Versions: 1 2 3 4 5 6 7 8 9 10 11 12 13 14 15 16 17 18 19 20 21 22 23 24 25 26 27 28 29 30 31 32 33 34 35 36 37 38 39 40 41 42 43 44 45 46 47 48 49 50
667
ASUS44 KLZK 162005
RWRLZK

WEATHER ROUNDUP FOR ARKANSAS
NATIONAL WEATHER SERVICE LITTLE ROCK AR
300 PM CDT MON OCT 16 2017

NOTE: "FAIR" INDICATES FEW OR NO CLOUDS BELOW 12,000 FEET WITH NO
SIGNIFICANT WEATHER AND/OR OBSTRUCTIONS TO VISIBILITY.

ARZ001-003-010-029-162100-
NORTHWEST ARKANSAS

CITY           SKY/WX    TMP DP  RH WIND       PRES   REMARKS
FAYETTEVILLE   SUNNY     66  36  32 NE6       30.34F
FORT SMITH     SUNNY     69  39  33 VRB3      30.33F
HARRISON       SUNNY     66  33  29 N8        30.35F
BENTONVILLE    SUNNY     66  36  32 VRB6      30.36F
ROGERS         SUNNY     64  35  34 MISG      30.35F
SILOAM SPGS    SUNNY     67  38  34 E6        30.36F
HIGHFILL       SUNNY     67  35  30 E7        30.35F
SPRINGDALE     SUNNY     66  37  34 NE10      30.36F
$$

ARZ004-005-016-162100-
NORTH CENTRAL ARKANSAS

CITY           SKY/WX    TMP DP  RH WIND       PRES   REMARKS
BATESVILLE     SUNNY     67  37  33 VRB6      30.33F
FLIPPIN        SUNNY     68  36  30 VRB3      30.34F
MTN HOME       SUNNY     66  35  31 E7        30.33F
$$

ARZ040-041-162100-
WEST CENTRAL ARKANSAS

CITY           SKY/WX    TMP DP  RH WIND       PRES   REMARKS
MENA           SUNNY     72  34  25 N6        30.31F
$$

ARZ009-017-025-026-028-162100-
NORTHEAST ARKANSAS

CITY           SKY/WX    TMP DP  RH WIND       PRES   REMARKS
JONESBORO      SUNNY     68  39  34 N9G18     30.32F
NEWPORT        SUNNY     67  39  35 NE10G20   30.33F
WALNUT RIDGE   SUNNY     67  36  31 NE13      30.32F
BLYTHEVILLE    SUNNY     67  35  30 NE13G22   30.31F
$$

ARZ022-023-033-042-044-162100-
CENTRAL ARKANSAS

CITY           SKY/WX    TMP DP  RH WIND       PRES   REMARKS
LITTLE ROCK    SUNNY     68  42  38 N8        30.32F
N LITTLE ROCK    N/A     68  41  38 E9        30.34F
JACKSONVILLE   SUNNY     69  37  31 NE7G17    30.31F
SEARCY         SUNNY     68  37  32 N10       30.33F
HOT SPRINGS    SUNNY     69  40  34 MISG      30.31F
RUSSELLVILLE   SUNNY     70  36  28 N7        30.31F
CLINTON        FAIR      68  37  32 VRB3      30.33F
$$

ARZ036-162100-
EAST ARKANSAS

CITY           SKY/WX    TMP DP  RH WIND       PRES   REMARKS
WEST MEMPHIS   SUNNY     66  39  37 N13G22    30.29
$$

ARZ050-053-066-070-073-162100-
SOUTHWEST ARKANSAS

CITY           SKY/WX    TMP DP  RH WIND       PRES   REMARKS
ARKADELPHIA    FAIR      70  42  36 NE8       30.31F
CAMDEN         SUNNY     73  37  27 VRB7G15   30.29F
TEXARKANA      SUNNY     69  38  32 NE9       30.29F
EL DORADO      SUNNY     70  39  32 VRB5      30.29F
$$

ARZ056-057-069-162100-
SOUTHEAST ARKANSAS

CITY           SKY/WX    TMP DP  RH WIND       PRES   REMARKS
PINE BLUFF     SUNNY     68  38  33 N13G22    30.30F
STUTTGART      SUNNY     67  40  37 N10       30.31F
MONTICELLO     SUNNY     69  39  33 NE10G16   30.28F

$$






USA.gov is the U.S. government's official web portal to all federal, state and local government web resources and services.